Volver al catálogo

FENGYUN 2D AKM

ActivoMEO
NORAD 29642·ROCKET BODY·🇨🇳 China

Lanzado Dec 8, 2006 desde Xichang Satellite Launch Center

Loading…

Próximos Pases (próximas 24 horas)

TLE

ActualizadoSource: Space-Track

Época: Sep 14, 2026, 12:19 UTC

1 29642U 06053C   26257.51334198  .00000031  00000-0  00000-0 0  9997
2 29642  11.9680  37.0380 0106441  50.0351 138.8640  0.99353430 47143

Sigue FENGYUN 2D AKM en tiempo real con AllMySat

Download on the App Store